TimeEDT,TemperatureF,Dew PointF,Humidity,Sea Level PressureIn,VisibilityMPH,Wind Direction,Wind SpeedMPH,Gust SpeedMPH,PrecipitationIn,Events,Conditions,WindDirDegrees,DateUTC
12:15 AM,59.0,57.2,94,30.06,9.0,Calm,Calm,-,N/A,,Clear,0,2013-10-03 04:15:00
12:35 AM,59.0,57.2,94,30.06,7.0,Calm,Calm,-,N/A,,Clear,0,2013-10-03 04:35:00
12:55 AM,59.0,57.2,94,30.07,8.0,Calm,Calm,-,N/A,,Clear,0,2013-10-03 04:55:00
1:15 AM,57.2,57.2,100,30.07,3.0,Calm,Calm,-,N/A,,Clear,0,2013-10-03 05:15:00
1:35 AM,57.2,55.4,94,30.08,9.0,Calm,Calm,-,N/A,,Unknown,0,2013-10-03 05:35:00
1:55 AM,57.2,55.4,94,30.08,7.0,Calm,Calm,-,N/A,,Clear,0,2013-10-03 05:55:00
2:15 AM,55.4,55.4,100,30.08,9.0,Calm,Calm,-,N/A,,Clear,0,2013-10-03 06:15:00
2:35 AM,55.4,55.4,100,30.08,10.0,Calm,Calm,-,N/A,,Clear,0,2013-10-03 06:35:00
2:55 AM,55.4,55.4,100,30.08,5.0,Calm,Calm,-,N/A,,Clear,0,2013-10-03 06:55:00
3:15 AM,55.4,53.6,94,30.09,9.0,Calm,Calm,-,N/A,,Clear,0,2013-10-03 07:15:00
3:35 AM,55.4,53.6,94,30.09,3.0,Calm,Calm,-,N/A,,Clear,0,2013-10-03 07:35:00
3:55 AM,53.6,53.6,100,30.09,5.0,Calm,Calm,-,N/A,,Clear,0,2013-10-03 07:55:00
4:15 AM,53.6,51.8,94,30.10,10.0,Calm,Calm,-,N/A,,Clear,0,2013-10-03 08:15:00
4:35 AM,53.6,53.6,100,30.10,9.0,Calm,Calm,-,N/A,,Clear,0,2013-10-03 08:35:00
4:55 AM,53.6,53.6,100,30.10,5.0,Calm,Calm,-,N/A,,Clear,0,2013-10-03 08:55:00
5:15 AM,53.6,51.8,94,30.10,10.0,Calm,Calm,-,N/A,,Clear,0,2013-10-03 09:15:00
5:35 AM,51.8,50.0,94,30.11,9.0,Calm,Calm,-,N/A,,Clear,0,2013-10-03 09:35:00
5:55 AM,51.8,50.0,94,30.11,7.0,Calm,Calm,-,N/A,,Clear,0,2013-10-03 09:55:00
6:15 AM,51.8,50.0,94,30.12,5.0,Calm,Calm,-,N/A,,Clear,0,2013-10-03 10:15:00
6:35 AM,51.8,50.0,94,30.12,10.0,Calm,Calm,-,N/A,,Clear,0,2013-10-03 10:35:00
6:55 AM,50.0,50.0,100,30.12,6.0,Calm,Calm,-,N/A,,Clear,0,2013-10-03 10:55:00
7:15 AM,50.0,50.0,100,30.13,5.0,Calm,Calm,-,N/A,,Clear,0,2013-10-03 11:15:00
7:35 AM,51.8,50.0,94,30.13,7.0,Calm,Calm,-,N/A,,Clear,0,2013-10-03 11:35:00
7:55 AM,53.6,51.8,94,30.13,7.0,Calm,Calm,-,N/A,,Clear,0,2013-10-03 11:55:00
8:15 AM,55.4,53.6,94,30.14,9.0,Calm,Calm,-,N/A,,Clear,0,2013-10-03 12:15:00
8:35 AM,57.2,53.6,88,30.15,8.0,Calm,Calm,-,N/A,,Clear,0,2013-10-03 12:35:00
8:55 AM,59.0,57.2,94,30.15,7.0,Calm,Calm,-,N/A,,Clear,0,2013-10-03 12:55:00
9:15 AM,60.8,57.2,88,30.15,5.0,Calm,Calm,-,N/A,,Clear,0,2013-10-03 13:15:00
9:35 AM,64.4,59.0,83,30.15,8.0,Calm,Calm,-,N/A,,Clear,0,2013-10-03 13:35:00
9:55 AM,66.2,59.0,78,30.15,9.0,Calm,Calm,-,N/A,,Clear,0,2013-10-03 13:55:00
10:15 AM,68.0,59.0,73,30.15,10.0,Calm,Calm,-,N/A,,Clear,0,2013-10-03 14:15:00
10:35 AM,71.6,57.2,60,30.15,10.0,Calm,Calm,-,N/A,,Clear,0,2013-10-03 14:35:00
10:55 AM,71.6,57.2,60,30.14,10.0,Calm,Calm,-,N/A,,Clear,0,2013-10-03 14:55:00
11:15 AM,73.4,57.2,57,30.14,10.0,Calm,Calm,-,N/A,,Clear,0,2013-10-03 15:15:00
11:35 AM,73.4,55.4,53,30.14,10.0,Calm,Calm,-,N/A,,Clear,0,2013-10-03 15:35:00
11:55 AM,75.2,55.4,50,30.14,10.0,South,4.6,-,N/A,,Clear,190,2013-10-03 15:55:00
12:15 PM,75.2,55.4,50,30.13,10.0,Calm,Calm,-,N/A,,Clear,0,2013-10-03 16:15:00
12:35 PM,77.0,57.2,50,30.13,10.0,West,3.5,-,N/A,,Clear,260,2013-10-03 16:35:00
12:55 PM,77.0,57.2,50,30.12,10.0,SW,4.6,-,N/A,,Clear,220,2013-10-03 16:55:00
1:15 PM,77.0,55.4,47,30.11,10.0,WSW,5.8,-,N/A,,Clear,240,2013-10-03 17:15:00
1:35 PM,77.0,57.2,50,30.10,10.0,SW,5.8,-,N/A,,Clear,230,2013-10-03 17:35:00
1:55 PM,77.0,57.2,50,30.09,10.0,SW,4.6,-,N/A,,Clear,220,2013-10-03 17:55:00
2:15 PM,78.8,57.2,47,30.09,10.0,SW,4.6,-,N/A,,Clear,230,2013-10-03 18:15:00
2:35 PM,78.8,57.2,47,30.08,10.0,NW,3.5,-,N/A,,Clear,320,2013-10-03 18:35:00
2:55 PM,78.8,59.0,51,30.09,10.0,WSW,5.8,-,N/A,,Clear,250,2013-10-03 18:55:00
3:15 PM,78.8,59.0,51,30.08,10.0,West,3.5,-,N/A,,Clear,260,2013-10-03 19:15:00
3:35 PM,78.8,59.0,51,30.07,10.0,SW,3.5,-,N/A,,Clear,230,2013-10-03 19:35:00
3:55 PM,77.0,59.0,54,30.07,10.0,Calm,Calm,-,N/A,,Clear,0,2013-10-03 19:55:00
4:15 PM,77.0,59.0,54,30.07,10.0,Calm,Calm,-,N/A,,Clear,0,2013-10-03 20:15:00
4:35 PM,77.0,62.6,61,30.07,10.0,Calm,Calm,-,N/A,,Clear,0,2013-10-03 20:35:00
4:55 PM,77.0,60.8,57,30.07,10.0,SSW,3.5,-,N/A,,Clear,210,2013-10-03 20:55:00
5:15 PM,77.0,62.6,61,30.07,10.0,Calm,Calm,-,N/A,,Clear,0,2013-10-03 21:15:00
5:35 PM,77.0,62.6,61,30.07,10.0,Calm,Calm,-,N/A,,Clear,0,2013-10-03 21:35:00
5:55 PM,75.2,64.4,69,30.07,10.0,Calm,Calm,-,N/A,,Clear,0,2013-10-03 21:55:00
6:15 PM,73.4,64.4,73,30.07,10.0,Calm,Calm,-,N/A,,Clear,0,2013-10-03 22:15:00
6:35 PM,73.4,64.4,73,30.07,10.0,Calm,Calm,-,N/A,,Clear,0,2013-10-03 22:35:00
6:55 PM,71.6,64.4,78,30.07,10.0,Calm,Calm,-,N/A,,Clear,0,2013-10-03 22:55:00
7:15 PM,69.8,64.4,83,30.07,10.0,Calm,Calm,-,N/A,,Clear,0,2013-10-03 23:15:00
7:35 PM,68.0,64.4,88,30.08,10.0,Calm,Calm,-,N/A,,Clear,0,2013-10-03 23:35:00
7:55 PM,68.0,64.4,88,30.08,10.0,Calm,Calm,-,N/A,,Clear,0,2013-10-03 23:55:00
8:15 PM,68.0,64.4,88,30.08,10.0,Calm,Calm,-,N/A,,Clear,0,2013-10-04 00:15:00
8:35 PM,66.2,64.4,94,30.08,10.0,Calm,Calm,-,N/A,,Clear,0,2013-10-04 00:35:00
8:55 PM,66.2,64.4,94,30.08,10.0,Calm,Calm,-,N/A,,Clear,0,2013-10-04 00:55:00
9:15 PM,66.2,64.4,94,30.09,10.0,Calm,Calm,-,N/A,,Clear,0,2013-10-04 01:15:00
9:35 PM,66.2,64.4,94,30.09,4.0,Calm,Calm,-,N/A,,Clear,0,2013-10-04 01:35:00
9:55 PM,66.2,64.4,94,30.09,5.0,Calm,Calm,-,N/A,,Clear,0,2013-10-04 01:55:00
10:15 PM,64.4,62.6,94,30.10,8.0,Calm,Calm,-,N/A,,Clear,0,2013-10-04 02:15:00
10:35 PM,64.4,62.6,94,30.10,10.0,Calm,Calm,-,N/A,,Clear,0,2013-10-04 02:35:00
10:55 PM,64.4,62.6,94,30.11,10.0,Calm,Calm,-,N/A,,Clear,0,2013-10-04 02:55:00
11:15 PM,64.4,62.6,94,30.10,10.0,Calm,Calm,-,N/A,,Clear,0,2013-10-04 03:15:00
11:35 PM,62.6,62.6,100,30.10,8.0,Calm,Calm,-,N/A,,Clear,0,2013-10-04 03:35:00